EW6230 Weather Reports


Display with metric or nautical units.
time (UTC)temp
F
wind
direction
speed
MPH
gust
MPH
rain 1hr
in
rain 24hr
in
rain mn
in
humidity
%
barometer
mb
20260505010031 68 49 0.0 0.0 0.00 0.00 0.00 56 1005.8
20260505004526 70 59 0.0 0.0 0.00 0.00 0.00 55 1005.8
20260505003021 72 23 0.0 0.0 0.00 0.00 0.00 53 1005.8
20260505001517 74 68 0.0 0.0 0.00 0.00 0.00 51 1005.9
20260505000016 76 70 0.0 0.0 0.00 0.00 0.00 49 1005.9
20260504234514 76 79 0.0 0.0 0.00 0.00 0.00 50 1006.0
20260504233011 75 27 0.0 0.0 0.00 0.00 0.00 53 1005.9
20260504231506 77 26 0.0 0.0 0.00 0.00 0.00 50 1005.9
20260504230003 77 24 0.0 0.0 0.00 0.00 0.00 47 1006.1
20260504224559 78 82 0.0 0.0 0.00 0.00 0.00 46 1006.3
20260504223054 77 104 0.0 0.0 0.00 0.00 0.00 49 1006.5
20260504221549 76 356 0.0 0.0 0.00 0.00 0.00 47 1006.5
20260504220046 75 21 0.0 0.0 0.00 0.00 0.00 49 1006.5
20260504214550 74 29 0.0 0.0 0.00 0.00 0.00 52 1006.7
20260504213036 74 59 0.0 0.0 0.00 0.00 0.00 49 1006.8
20260504211534 76 94 0.0 0.0 0.00 0.00 0.00 46 1006.9
20260504210036 76 221 0.0 0.0 0.00 0.00 0.00 45 1006.9
20260504204531 77 221 0.0 0.0 0.00 0.00 0.00 44 1006.9
20260504203024 78 220 0.0 0.0 0.00 0.00 0.00 44 1006.9
20260504201513 76 196 0.0 0.0 0.00 0.00 0.00 49 1006.8
20260504200009 76 194 0.0 0.0 0.00 0.00 0.00 46 1006.9
20260504194506 74 194 0.0 0.0 0.00 0.00 0.00 45 1006.9
20260504193100 74 194 0.0 0.0 0.00 0.00 0.00 44 1007.0
20260504191600 78 193 0.0 0.0 0.00 0.00 0.00 40 1006.9
20260504190054 80 171 0.0 0.0 0.00 0.00 0.00 39 1006.8
20260504184547 79 172 0.0 0.0 0.00 0.00 0.00 38 1006.9
20260504183043 79 167 0.0 0.0 0.00 0.00 0.00 36 1007.0
20260504181539 78 150 0.0 0.0 0.00 0.00 0.00 38 1007.1
20260504180033 79 148 0.0 0.0 0.00 0.00 0.00 38 1007.1
20260504174529 77 150 0.0 0.0 0.00 0.00 0.00 39 1007.1
20260504173024 76 51 0.0 0.0 0.00 0.00 0.00 42 1007.2
20260504171520 76 50 0.0 1.0 0.00 0.00 0.00 41 1007.2
20260504160106 77 37 0.0 0.0 0.00 0.00 0.00 44 1007.1
20260504081531 58 58 0.0 0.0 0.00 0.00 0.00 52 1005.6
20260504050010 60 58 0.0 0.0 0.00 0.00 0.00 57 1006.2
20260504044514 62 58 0.0 0.0 0.00 0.00 0.00 49 1006.0
20260504043014 63 58 0.0 0.0 0.00 0.00 0.00 47 1006.0
20260504041532 64 58 0.0 0.0 0.00 0.00 0.00 44 1006.0
20260504040015 65 58 0.0 0.0 0.00 0.00 0.00 48 1006.0
20260504034510 66 58 0.0 0.0 0.00 0.00 0.00 46 1005.9
20260504033008 67 58 0.0 0.0 0.00 0.00 0.00 44 1005.9
20260504031508 68 58 0.0 0.0 0.00 0.00 0.00 42 1005.8
20260504030007 70 58 0.0 0.0 0.00 0.00 0.00 39 1005.9
20260504024506 71 58 0.0 0.0 0.00 0.00 0.00 38 1006.0
20260504023005 72 58 0.0 0.0 0.00 0.00 0.00 34 1006.0
20260504021503 72 58 0.0 0.0 0.00 0.00 0.00 37 1006.2
20260504020005 73 58 0.0 0.0 0.00 0.00 0.00 36 1006.2
20260504014602 74 58 0.0 0.0 0.00 0.00 0.00 33 1006.4
20260504013126 74 58 0.0 0.0 0.00 0.00 0.00 33 1006.6
20260504011556 74 61 0.0 0.0 0.00 0.00 0.00 33 1006.8